Fargo, ND

12:30 AM CDT on July 21, 2017 (GMT -0500)
Hector International

Weather History for KFAR - January, 2012

Change the Weather History Date:

Tuesday, January 10, 2012

  Actual Average Record
Temperature  
Mean Temperature 40 °F 9 °F  
Max Temperature 51 °F 18 °F 51 °F (2012)
Min Temperature 28 °F 0 °F -34 °F (1886)
Degree Days  
Heating Degree Days 25 56  
Month to date heating degree days 349 556  
Since 1 July heating degree days 3119 4096  
Cooling Degree Days 0 0  
Month to date cooling degree days 0 0  
Year to date cooling degree days 0 0  
Moisture  
Dew Point 29 °F    
Average Humidity 62    
Maximum Humidity 78    
Minimum Humidity 46    
Precipitation  
Precipitation 0.03 in 0.02 in 0.25 in (1929)
Month to date precipitation 0.03 0.25  
Year to date precipitation 0.03 0.25  
Snow  
Snow 0.00 in 0.50 in 3.00 in (1997)
Month to date snowfall T 4.0  
Since 1 July snowfall 3.9 23.8  
Snow Depth 0.00 in    
Sea Level Pressure  
Sea Level Pressure 29.74 in    
Wind  
Wind Speed 8 mph (SW)    
Max Wind Speed 23 mph    
Max Gust Speed 26 mph    
Visibility 10 miles    
Events Rain    
T = Trace of Precipitation, MM = Missing Value Source: NWS Daily Summary

Daily Weather History Graph

Daily Weather History Graph

Search for Another Location

Airport or City:

Trip Planner

Search our weather history database for the weather conditions in past years. The results will help you decide how hot, cold, wet, or windy it might be!

Date:

Astronomy

Jan. 10, 2012 Rise Set
Actual Time 8:11 AM CST 4:58 PM CST
Civil Twilight 7:36 AM CST 5:33 PM CST
Nautical Twilight 6:58 AM CST 6:11 PM CST
Astronomical Twilight 6:21 AM CST 6:47 PM CST
Moon 7:00 PM CST (1/10) 8:42 AM CST (1/10)
Length of Visible Light 9h 56m
Length of Day
8h 47m
Full, 98% of the Moon is Illuminated
Jan 10
Full
Jan 16
Last Quarter
Jan 23
New
Jan 30
First Quarter
Feb 7
Full

Hourly Weather History & Observations

Time (CST) Temp. Windchill Dew Point Humidity Pressure Visibility Wind Dir Wind Speed Gust Speed Precip Events Conditions
12:53 AM 33.1 °F 25.5 °F 25.0 °F 72% 29.88 in 10.0 mi South 9.2 mph - N/A   Clear
1:53 AM 32.0 °F 23.6 °F 24.1 °F 73% 29.84 in 10.0 mi South 10.4 mph - N/A   Clear
2:53 AM 30.9 °F 22.2 °F 24.1 °F 76% 29.82 in 10.0 mi South 10.4 mph - N/A   Clear
3:53 AM 30.9 °F 21.7 °F 24.1 °F 76% 29.80 in 10.0 mi South 11.5 mph - N/A   Clear
4:53 AM 30.0 °F 21.7 °F 24.1 °F 79% 29.78 in 10.0 mi SSW 9.2 mph - N/A   Clear
5:53 AM 30.0 °F 21.7 °F 24.1 °F 79% 29.77 in 10.0 mi SSW 9.2 mph - N/A   Clear
6:53 AM 32.0 °F 24.8 °F 25.0 °F 75% 29.77 in 10.0 mi South 8.1 mph - N/A   Clear
7:53 AM 32.0 °F 26.4 °F 25.0 °F 75% 29.78 in 10.0 mi SSW 5.8 mph - N/A   Clear
8:53 AM 34.0 °F 27.2 °F 27.0 °F 75% 29.77 in 10.0 mi South 8.1 mph - N/A   Clear
9:53 AM 37.0 °F 32.4 °F 28.0 °F 70% 29.78 in 10.0 mi South 5.8 mph - N/A   Clear
10:53 AM 41.0 °F 38.0 °F 30.0 °F 65% 29.78 in 10.0 mi South 4.6 mph - N/A   Clear
11:53 AM 44.1 °F 40.8 °F 30.0 °F 58% 29.75 in 10.0 mi SSW 5.8 mph - N/A   Clear
12:53 PM 46.9 °F - 30.9 °F 54% 29.73 in 10.0 mi WSW 6.9 mph - N/A   Clear
1:53 PM 48.9 °F - 30.9 °F 50% 29.71 in 10.0 mi SSW 8.1 mph - N/A   Clear
2:53 PM 50.0 °F - 30.9 °F 48% 29.69 in 10.0 mi SSW 8.1 mph - N/A   Clear
3:53 PM 50.0 °F - 32.0 °F 50% 29.68 in 10.0 mi SSW 6.9 mph - N/A   Clear
4:53 PM 46.9 °F - 30.9 °F 54% 29.67 in 10.0 mi SW 3.5 mph - N/A   Clear
5:53 PM 44.1 °F - 30.9 °F 60% 29.67 in 10.0 mi Calm Calm - N/A   Clear
6:53 PM 41.0 °F - 30.0 °F 65% 29.65 in 10.0 mi Calm Calm - N/A   Mostly Cloudy
7:53 PM 39.9 °F 37.8 °F 30.0 °F 68% 29.67 in 10.0 mi NW 3.5 mph - N/A   Overcast
8:53 PM 43.0 °F 38.2 °F 30.0 °F 60% 29.67 in 10.0 mi West 8.1 mph - N/A   Overcast
9:53 PM 42.1 °F 36.1 °F 30.0 °F 62% 29.67 in 10.0 mi NNW 10.4 mph - 0.00 in   Overcast
10:53 PM 39.0 °F 31.4 °F 33.1 °F 79% 29.70 in 10.0 mi NW 12.7 mph - 0.00 in Rain Light Rain
11:35 PM 37.4 °F 28.9 °F 33.8 °F 87% 29.68 in 8.0 mi NNW 13.8 mph - 0.02 in Rain Light Rain
11:53 PM 37.0 °F 27.0 °F 32.0 °F 82% 29.71 in 9.0 mi NNW 18.4 mph 25.3 mph 0.03 in Rain Light Rain